1315353628956,3.89911
1315353688956,3.85559
1315353748956,3.86571
1315353808956,3.87472
1315353868956,3.88328
1315353928956,3.87168
1315353988956,3.89084
1315354048956,3.88572
1315354108956,3.90689
1315354168956,3.87297
1315354228956,3.89856
1315354288956,3.88727
1315354348956,3.90723
1315354408956,3.90284
1315354468956,3.87876
1315354528956,3.86376
1315354588956,3.91261
1315354648956,3.87126
1315354708956,3.89325
1315354768956,3.84585
1315354828956,3.87300
1315354888956,3.84396
1315354948956,3.86680
1315355008956,3.88651
1315355068956,3.85288
1315355128956,3.86584
1315355188956,3.90269
1315355248956,3.89047
1315355308956,3.85243
1315355368956,3.89924
1315355428956,3.86574
1315355488956,3.86305
1315355548956,3.89022
1315355608956,3.84166
1315355668956,3.90294
1315355728956,3.89334
1315355788956,3.86204
1315355848956,3.86582
1315355908956,3.88696
1315355968956,3.84546
1315356028956,3.87739
1315356088956,3.86891
1315356148956,3.87619
1315356208956,3.89686
1315356268956,3.84174
1315356328956,3.90913
1315356388956,3.88895
1315356448956,3.87146
1315356508956,3.86135
1315356568956,3.87206
1315356628956,3.84605
1315356688956,3.93712
1315356748956,3.87899
1315356808956,3.84336
1315356868956,3.87131
1315356928956,3.83891
1315356988956,3.84661
1315357048956,3.88592
1315357108956,3.89377
1315357168956,3.85578
1315357228966,3.87126
1315357288966,3.87370
1315357348966,3.84908
1315357408966,3.86298
1315357468966,3.88215
1315357528966,3.88281
1315357588966,3.87017
1315357648966,3.87877
1315357708966,3.81325
1315357768966,3.88463
1315357828966,3.87112
1315357888966,3.85534
1315357948966,3.85752
1315358008966,3.85938
1315358068966,3.82726
1315358128966,3.82184
1315358188966,3.84234
1315358248966,3.85563
1315358308966,3.84720
1315358368966,3.83137
1315358428966,3.88649
1315358488966,3.84738
1315358548966,3.84951
1315358608966,3.85815
1315358668966,3.82635
1315358728966,3.85719
1315358788966,3.87059
1315358848966,3.86637
1315358908966,3.86278
1315358968966,3.82465
1315359028966,3.83147
1315359088966,3.85606
1315359148966,3.79991
1315359208966,3.83775
1315359268966,3.83391
1315359328966,3.78952
1315359388966,3.84130
1315359448966,3.80917
1315359508966,3.79604
1315359568966,3.84814
1315359628966,3.82003
1315359688966,3.80568
1315359748966,3.85820
1315359808966,3.84173
1315359868966,3.85326
1315359928966,3.81719
1315359988966,3.79876
1315360048966,3.82470
1315360108966,3.82046
1315360168966,3.83551
1315360228966,3.84108
1315360288966,3.82888
1315360348966,3.83870
1315360408966,3.80718
1315360468966,3.78953
1315360528966,3.79519
1315360588966,3.82766
1315360648966,3.84676
1315360708966,3.84446
1315360768966,3.78537
1315360828976,3.81411
1315360888976,3.82661
1315360948976,3.81877
1315361008976,3.80190
1315361068976,3.80345
1315361128976,3.80170
1315361188976,3.82653
1315361248976,3.81123
1315361308976,3.83173
1315361368976,3.78775
1315361428976,3.79344
1315361488976,3.83080
1315361548976,3.80790
1315361608976,3.82424
1315361668976,3.83179
1315361728976,3.82999
1315361788976,3.81548
1315361848976,3.84660
1315361908976,3.81523
1315361968976,3.81986
1315362028976,3.81316
1315362088976,3.80730
1315362148976,3.80061
1315362208976,3.81011
1315362268976,3.79768
1315362328976,3.80138
1315362388976,3.82112
1315362448976,3.81462
1315362508976,3.81754
1315362568976,3.78882
1315362628976,3.82031
1315362688976,3.82085
1315362748976,3.79544
1315362808976,3.80157
1315362868976,3.80971
1315362928976,3.80909
1315362988976,3.80647
1315363048976,3.84105
1315363108976,3.77247
1315363168976,3.82201
1315363228976,3.77891
1315363288976,3.81363
1315363348976,3.82571
1315363408976,3.78603
1315363468976,3.80782
1315363528976,3.76633
1315363588976,3.78099
1315363648976,3.77169
1315363708976,3.80371
1315363768976,3.75873
1315363828976,3.81006
1315363888976,3.83734
1315363948976,3.82028
1315364008976,3.80277
1315364068976,3.79395
1315364128976,3.79259
1315364188976,3.79246
1315364248976,3.77267
1315364308976,3.78313
1315364368976,3.80273
1315364428986,3.78657
1315364488986,3.79972
1315364548986,3.80753
1315364608986,3.78865
1315364668986,3.80021
1315364728986,3.77749
1315364788986,3.78042
1315364848986,3.80374
1315364908986,3.78900
1315364968986,3.79323
1315365028986,3.81019
1315365088986,3.80347
1315365148986,3.78006
1315365208986,3.80747
1315365268986,3.80988
1315365328986,3.78509
1315365388986,3.77351
1315365448986,3.74150
1315365508986,3.78233
1315365568986,3.76840
1315365628986,3.78964
1315365688986,3.79475
1315365748986,3.77678
1315365808986,3.75591
1315365868986,3.76650
1315365928986,3.75234
1315365988986,3.77474
1315366048986,3.76199
1315366108986,3.75276
1315366168986,3.78262
1315366228986,3.76842
1315366288986,3.76389
1315366348986,3.77206
1315366408986,3.73986
1315366468986,3.86916
1315366528986,3.77316
1315366588986,3.79031
1315366648986,3.77735
1315366708986,3.74390
1315366768986,3.76998
1315366828986,3.79016
1315366888986,3.76340
1315366948986,3.78434
1315367008986,3.75832
1315367068986,3.76462
1315367128986,3.76268
1315367188986,3.78722
1315367248986,3.72921
1315367308986,3.72896
1315367368986,3.76583
1315367428986,3.77273
1315367488986,3.73395
1315367548986,3.75987
1315367608986,3.77007
1315367668986,3.79617
1315367728986,3.73924
1315367788986,3.74424
1315367848986,3.78427
1315367908986,3.76111
1315367968986,3.78979
1315368028995,3.73675
1315368088995,3.77287
1315368148995,3.73132
1315368208995,3.72269
1315368268995,3.77151
1315368328995,3.72814
1315368388995,3.74233
1315368448995,3.72778
1315368508995,3.76072
1315368568995,3.75841
1315368628995,3.72489
1315368688995,3.77380
1315368748995,3.74130
1315368808995,3.75634
1315368868995,3.78415
1315368928995,3.82565
1315368988995,3.77563
1315369048995,3.75304
1315369108995,3.77822
1315369168995,3.73413
1315369228995,3.77393
1315369288995,3.75255
1315369348995,3.71489
1315369408995,3.74884
1315369468995,3.73368
1315369528995,3.76742
1315369588995,3.76104
1315369648995,3.74803
1315369708995,3.73423
1315369768995,3.75910
1315369828995,3.73938
1315369888995,3.77889
1315369948995,3.75870
1315370008995,3.73067
1315370068995,3.76260
1315370128995,3.73943
1315370188995,3.75815
1315370248995,3.74751
1315370308995,3.77644
1315370368995,3.71546
1315370428995,3.72632
1315370488995,3.74519
1315370548995,3.75010
1315370608995,3.72569
1315370668995,3.74890
1315370728995,3.74179
1315370788995,3.76069
1315370848995,3.75320
1315370908995,3.74368
1315370968995,3.74253
1315371028995,3.74711
1315371088995,3.72975
1315371148995,3.76801
1315371208995,3.73695
1315371268995,3.72358
1315371328995,3.72255
1315371388995,3.72014
1315371448995,3.75872
1315371508995,3.75768
1315371568995,3.74657
1315371629005,3.73905
1315371689005,3.76581
1315371749005,3.74360
1315371809005,3.74775
1315371869005,3.77194
1315371929005,3.69073
1315371989005,3.74700
1315372049005,3.73918
1315372109005,3.72040
1315372169005,3.75054
1315372229005,3.74124
1315372289005,3.73773
1315372829005,3.77906
1315372889005,3.72569
1315372949005,3.72866
1315373009005,3.74325
1315373069005,3.75600
1315373129005,3.77491
1315373189005,3.73406
1315373249005,3.72956
1315373309005,3.74861
1315373369005,3.73038
1315373429005,3.75718
1315373489005,3.75335
1315373549005,3.73797
1315373609005,3.74192
1315373669005,3.73059
1315373729005,3.77245
1315373789005,3.76420
1315373849005,3.72016
1315373909005,3.75346
1315373969005,3.74970
1315374029005,3.73844
1315374089005,3.74619
1315374149005,3.74712
1315374209005,3.76894
1315374269005,3.72711
1315374329005,3.77047
1315374389005,3.76155
1315374449005,3.75263
1315374509005,3.74865
1315374569005,3.77601
1315374629005,3.76578
1315374689005,3.76071
1315374749005,3.76200
1315374809005,3.72930
1315374869005,3.75935
1315374929005,3.73485
1315374989005,3.77927
1315375049005,3.76889
1315375109005,3.75015
1315375169005,3.75328
1315375229014,3.73336
1315375289014,3.75572
1315375349014,3.75558
1315375409014,3.74346
1315375469014,3.73705
1315375529014,3.76488
1315375589014,3.77103
1315375649014,3.74096
1315375709014,3.75847
1315375769014,3.73793
1315375829014,3.75885
1315375889014,3.76956
1315375949014,3.75295
1315376009014,3.81216
1315376069014,3.76359
1315376129014,3.78570
1315376189014,3.81189
1315376249014,3.78426
1315376309014,3.78692
1315376369014,3.77880
1315376429014,3.76404
1315376489014,3.77616
1315376549014,3.78582
1315376609014,3.78960
1315376669014,3.78416
1315376729014,3.79078
1315376789014,3.77310
1315376849014,3.78420
1315376909014,3.78652
1315376969014,3.78001
1315377029014,3.77376
1315377089014,3.76934
1315377149014,3.80363
1315377209014,3.76888
1315377269014,3.79117
1315377329014,3.79523
1315377389014,3.80020
1315377449014,3.78226
1315377509014,3.79623
1315377569014,3.78061
1315377629014,3.77997
1315377689014,3.77123
1315377749014,3.78910
1315377809014,3.75393
1315377869014,3.79340
1315377929014,3.78749
1315377989014,3.78028
1315378049014,3.76834
1315378109014,3.75432
1315378169014,3.78372
1315378229014,3.78243
1315378289014,3.80380
1315378349014,3.76339
1315378409014,3.81126
1315378469014,3.78141
1315378529014,3.80237
1315378589014,3.76224
1315378649014,3.75755
1315378709014,3.76090
1315378769014,3.78556
1315378829024,3.80056
1315378889024,3.78937
1315378949024,3.78473
1315379009024,3.76104
1315379069024,3.76761
1315379129024,3.75393
1315379189024,3.77480
1315379249024,3.77596
1315379309024,3.78743
1315379369024,3.75106
1315379429024,3.75812
1315379489024,3.76476
1315379549024,3.76573
1315379609024,3.76856
1315379669024,3.74624
1315379729024,3.75327
1315379789024,3.74950
1315379849024,3.77297
1315379909024,3.76060
1315379969024,3.78058
1315380029024,3.75632
1315380089024,3.76583
1315380149024,3.74967
1315380209024,3.74303
1315380269024,3.75085
1315380329024,3.75834
1315380389024,3.79056
1315380449024,3.76876
1315380509024,3.76770
1315380569024,3.77716
1315380629024,3.81756
1315380689024,3.73832
1315380749024,3.75188
1315380809024,3.77330
1315380869024,3.75805
1315380929024,3.74092
1315380989024,3.79306
1315381049024,3.75178
1315381109024,3.77142
1315381169024,3.74246
1315381229024,3.76921
1315381289024,3.77487
1315381349024,3.73105
1315381409024,3.74089
1315381469024,3.74351
1315381529024,3.77338
1315381589024,3.74178
1315381649024,3.77224
1315381709024,3.74759
1315381769024,3.75566
1315381829024,3.76604
1315381889024,3.73280
1315381949024,3.76814
1315382009024,3.74687
1315382069024,3.74306
1315382129024,3.74391
1315382189024,3.73646
1315382249024,3.70402
1315382309024,3.75742
1315382369024,3.74137
1315382429034,3.73185
1315382489034,3.74903
1315382549034,3.75008
1315382609034,3.69778
1315382669034,3.79400
1315382729034,3.73141
1315382789034,3.71114
1315382849034,3.73160
1315382909034,3.70060
1315382969034,3.71251
1315383029034,3.72340
1315383089034,3.73120
1315383149034,3.73902
1315383209034,3.75293
1315383269034,3.74695
1315383329034,3.75238
1315383389034,3.74640
1315383449034,3.76032
1315383509034,3.74690
1315383569034,3.70410
1315383629034,3.74582
1315383689034,3.75141
1315383749034,3.74885
1315383809034,3.76252
1315383869034,3.70893
1315383929034,3.72050
1315383989034,3.69400
1315384049034,3.74772
1315384109034,3.73372
1315384169034,3.75310
1315384229034,3.72216
1315384289034,3.75014
1315384349034,3.73635
1315384409034,3.71622
1315384469034,3.74070
1315384529034,3.74252
1315384589034,3.74471
1315384649034,3.70307
1315384709034,3.72276
1315384769034,3.71822
1315384829034,3.74145
1315384889034,3.71982
1315384949034,3.69868
1315385009034,3.73256
1315385069034,3.69126
1315385129034,3.72348
1315385189034,3.71906
1315385249034,3.74148
1315385309034,3.73335
1315385369034,3.74049
1315385429034,3.70403
1315385489034,3.73865
1315385549034,3.74647
1315385609034,3.71638
1315385669034,3.70414
1315385729034,3.72294
1315385789034,3.70916
1315385849034,3.69684
1315385909034,3.68997
1315385969034,3.73346
1315386029044,3.70474
1315386089044,3.69635
1315386149044,3.69224
1315386209044,3.69122
1315386269044,3.71144
1315386329044,3.68125
1315386389044,3.72888
1315386449044,3.69252
1315386509044,3.71924
1315386569044,3.70916
1315386629044,3.71671
1315386689044,3.72812
1315386749044,3.70741
1315386809044,3.70111
1315386869044,3.69190
1315386929044,3.70274
1315386989044,3.69656
1315387049044,3.68966
1315387109044,3.68421
1315387169044,3.70770
1315387229044,3.70967
1315387289044,3.69205
1315387349044,3.70075
1315387409044,3.70192
1315387469044,3.72130
1315387529044,3.72913
1315387589044,3.73615
1315387649044,3.74294
1315387709044,3.72708
1315387769044,3.74155
1315387829044,3.71672
1315387889044,3.73541
1315387949044,3.70537
1315388009044,3.68514
1315388069044,3.70868
1315388129044,3.71950
1315388189044,3.73505
1315388249044,3.71425
1315388309044,3.75206
1315388369044,3.71740
1315388429044,3.74167
1315388489044,3.74272
1315388549044,3.71670
1315388609044,3.71742
1315388669044,3.71744
1315388729044,3.70862
1315388789044,3.73616
1315388849044,3.69534
1315388909044,3.73293
1315388969044,3.69635
1315389029044,3.71588
1315389089044,3.69759
1315389149044,3.69147
1315389209044,3.72916
1315389269044,3.72491
1315389329044,3.72683
1315389389044,3.71677
1315389449044,3.73055
1315389509044,3.72164
1315389569044,3.72745
1315389629054,3.71944
1315389689054,3.72756
1315389749054,3.72321
1315389809054,3.71667
1315389869054,3.71699
1315389929054,3.71465
1315389989054,3.71538
1315390049054,3.74041
1315390109054,3.70740
1315390169054,3.73187
1315390229054,3.69585
1315390289054,3.70223
1315390349054,3.72700
1315390409054,3.73245
1315390469054,3.72422
1315390529054,3.71227
1315390589054,3.67130
1315390649054,3.69836
1315390709054,3.70757
1315390769054,3.72209
1315390829054,3.72766
1315390889054,3.74433
1315390949054,3.70126
1315391009054,3.71850
1315391069054,3.69936
1315391129054,3.71604
1315391189054,3.73192
1315391249054,3.70295
1315391309054,3.71819
1315391369054,3.70736
1315391429054,3.70459
1315391489054,3.72182
1315391549054,3.72050
1315391609054,3.71135
1315391669054,3.70838
1315391729054,3.71264
1315391789054,3.72071
1315391849054,3.72716
1315391909054,3.71128
1315391969054,3.70652
1315392029054,3.73364
1315392089054,3.73827
1315392149054,3.75534
1315392209054,3.74993
1315392269054,3.76123
1315392329054,3.77745
1315392389054,3.76718
1315392449054,3.75534
1315392509054,3.76312
1315392569054,3.77655
1315392629054,3.77858
1315392689054,3.74163
1315392749054,3.79015
1315392809054,3.74307
1315392869054,3.74647
1315392929054,3.75075
1315392989054,3.75652
1315393049054,3.74016
1315393109054,3.71570
1315393169054,3.73378
1315393229065,3.76017
1315393289065,3.72662
1315393349065,3.74087
1315393409065,3.73601
1315393469065,3.72289
1315393529065,3.75851
1315393589065,3.73975
1315393649065,3.79469
1315393709065,3.73415
1315393769065,3.80691
1315393829064,3.76603
1315393889064,3.75266
1315393949064,3.76195
1315394009064,3.75513
1315394069064,3.74326
1315394129064,3.70088
1315394189064,3.71466
1315394249065,3.73335
1315394309065,3.73715
1315394369065,3.73005
1315394429065,3.70015
1315394489064,3.72548
1315394549065,3.72322
1315394609065,3.70464
1315394669065,3.71296
1315394729065,3.74270
1315394789065,3.72813
1315394849065,3.70346
1315394909065,3.68725
1315394969065,3.72932
1315395029065,3.71831
1315395089065,3.70426
1315395149064,3.72771
1315395209064,3.71232
1315395269064,3.72730
1315395329064,3.70226
1315395389064,3.68460
1315395449064,3.72762
1315395509064,3.70704
1315395569065,3.68729
1315395629065,3.70327
1315395689065,3.69825
1315395749065,3.70972
1315395809065,3.75900
1315395869064,3.72467
1315395929065,3.71131
1315395989065,3.70252
1315396049065,3.73844
1315396109065,3.71272
1315396169065,3.69914
1315396229065,3.70638
1315396289065,3.72025
1315396349065,3.72969
1315396409065,3.71390
1315396469065,3.71382
1315396529064,3.69850
1315396589064,3.71603
1315396649064,3.70791
1315396709064,3.71741
1315396769064,3.72757
1315396829075,3.69701
1315396889075,3.69026
1315396949075,3.69252
1315397009075,3.70006
1315397069075,3.68830
1315397129075,3.72384
1315397189075,3.68042
1315397249075,3.71615
1315397309075,3.70441
1315397369075,3.73164
1315397429075,3.70210
1315397489075,3.73972
1315397549075,3.71452
1315397609075,3.68226
1315397669075,3.69833
1315397729075,3.67373
1315397789075,3.70096
1315397849075,3.67853
1315397909075,3.70347
1315397969075,3.70165
1315398029075,3.69690
1315398089075,3.68160
1315398149075,3.67820
1315398209075,3.69169
1315398269075,3.68322
1315398329075,3.69365
1315398389075,3.71521
1315398449075,3.70001
1315398509075,3.71910
1315398569075,3.70348
1315398629075,3.70638
1315398689075,3.69068
1315398749075,3.71510
1315398809075,3.68770
1315398869075,3.72537
1315398929075,3.70473
1315398989075,3.68965
1315399049075,3.69236
1315399109075,3.70610
1315399169075,3.70282
1315399229075,3.73909
1315399289075,3.69693
1315399349075,3.68665
1315399409075,3.69003
1315399469075,3.65415
1315399529075,3.66842
1315399589075,3.66962
1315399649075,3.68831
1315399709075,3.69467
1315399769075,3.71417
1315399829075,3.68636
1315399889075,3.65406
1315399949075,3.69444
1315400009075,3.68168
1315400069075,3.73430
1315400129075,3.69870
1315400189075,3.75425
1315400249075,3.66564
1315400309075,3.70787
1315400369075,3.69674
1315400429085,3.70406
1315400489085,3.73481
1315400549085,3.71584
1315400609085,3.69869
1315400669085,3.68497
1315400729085,3.68982
1315400789085,3.69865
1315400849085,3.70794
1315400909085,3.70745
1315400969085,3.70053
1315401029085,3.71475
1315401089085,3.69111
1315401149085,3.68687
1315401209085,3.67716
1315401269085,3.70165
1315401329085,3.69624
1315401389085,3.70941
1315401449085,3.72770
1315401509085,3.70460
1315401569085,3.68478
1315401629085,3.70910
1315401689085,3.68051
1315401749085,3.68049
1315401809085,3.70254
1315401869085,3.71222
1315401929085,3.66489
1315401989085,3.68447
1315402049085,3.69622
1315402109085,3.67875
1315402169085,3.70386
1315402229085,3.70220
1315402289085,3.71104
1315402349085,3.70175
1315402409085,3.69627
1315402469085,3.72440
1315402529085,3.70969
1315402589085,3.70004
1315402649085,3.71061
1315402709085,3.71578
1315402769085,3.68900
1315402829085,3.71989
1315402889085,3.72900
1315402949085,3.71026
1315403009085,3.68734
1315403069085,3.71703
1315403129085,3.73073
1315403189085,3.71714
1315403249085,3.69446
1315403309085,3.71207
1315403369085,3.73254
1315403429085,3.74410
1315403489085,3.70138
1315403549085,3.71547
1315403609085,3.71978
1315403669085,3.69403
1315403729085,3.70112
1315403789085,3.72431
1315403849085,3.70218
1315403909085,3.72692
1315403969085,3.74712
1315404029096,3.70478
1315404089096,3.71526
1315404149096,3.72599
1315404209096,3.71605
1315404269096,3.69402
1315404329096,3.70263
1315404389096,3.71801
1315404449096,3.73590
1315404509096,3.73628
1315404569096,3.75895
1315404629096,3.70661
1315404689096,3.69490
1315404749096,3.72491
1315404809096,3.71267
1315404869096,3.70233
1315404929096,3.70700
1315404989096,3.71099
1315405049096,3.72809
1315405109096,3.73481
1315405169096,3.69821
1315405229096,3.71920
1315405289096,3.68804
1315405349096,3.69261
1315405409096,3.66695
1315405469096,3.74099
1315405529096,3.69309
1315405589096,3.70966
1315405649096,3.70975
1315405709096,3.71950
1315405769096,3.68932
1315405829096,3.67927
1315405889096,3.72130
1315405949096,3.70520
1315406009096,3.71800
1315406069096,3.69517
1315406129096,3.67753
1315406189096,3.69626
1315406249096,3.70709
1315406309096,3.71254
1315406369096,3.66422
1315406429096,3.69030
1315406489096,3.71157
1315406549096,3.71358
1315406609096,3.73209
1315406669096,3.70764
1315406729096,3.72895
1315406789096,3.70687
1315406849096,3.72618
1315406909096,3.70347
1315406969096,3.76122
1315407029096,3.73548
1315407089096,3.73881
1315407149096,3.72573
1315407209096,3.70019
1315407269096,3.69484
1315407329096,3.69909
1315407389096,3.70602
1315407449096,3.70783
1315407509096,3.72468
1315407569096,3.70443
1315407629107,3.70140
1315407689107,3.71398
1315407749107,3.76028
1315407809107,3.71540
1315407869107,3.69299
1315407929107,3.68886
1315407989107,3.72939
1315408049107,3.68016
1315408109107,3.69157
1315408169107,3.71921
1315408229107,3.70429
1315408289107,3.71975
1315408349107,3.69850
1315408409107,3.69918
1315408469107,3.73649
1315408529107,3.71414
1315408589107,3.70249
1315408649107,3.70705
1315408709107,3.73511
1315408769107,3.73948
1315408829107,3.72020
1315408889107,3.69492
1315408949107,3.71226
1315409009107,3.70051
1315409069107,3.73101
1315409129107,3.71650
1315409189107,3.71371
1315409249107,3.70245
1315409309107,3.70087
1315409369107,3.70304
1315409429107,3.72761
1315409489107,3.71828
1315409549107,3.74433
1315409609107,3.73739
1315409669107,3.72577
1315409729107,3.70743
1315409789107,3.72276
1315409849107,3.68270
1315409909107,3.73511
1315409969107,3.69938
1315410029107,3.74853
1315410089107,3.71766
1315410149107,3.70486
1315410209107,3.73539
1315410269107,3.72979
1315410329107,3.73052
1315410389107,3.70903
1315410449107,3.73233
1315410509107,3.74565
1315410569107,3.71813
1315410629107,3.71773
1315410689107,3.73595
1315410749107,3.71893
1315410809107,3.72032
1315410869107,3.70908
1315410929107,3.76481
1315410989107,3.73853
1315411049107,3.67227
1315411109107,3.72495
1315411169107,3.71340
1315411229118,3.68703
1315411289118,3.71631
1315411349118,3.71177
1315411409118,3.73388
1315411469118,3.73361
1315411529118,3.73249
1315411589118,3.72270
1315411649118,3.76090
1315411709118,3.71588
1315411769118,3.70144
1315411829118,3.73904
1315411889118,3.74020
1315411949118,3.72414
1315412009118,3.73503
1315412069118,3.74198
1315412129118,3.72062
1315412189118,3.73545
1315412249118,3.72620
1315412309118,3.73479
1315412369118,3.72925
1315412429118,3.73250
1315412489118,3.77027
1315412549118,3.75516
1315412609118,3.74127
1315412669118,3.73100
1315412729118,3.74540
1315412789118,3.70706
1315412849118,3.75210
1315412909118,3.73477
1315412969118,3.71656
1315413029118,3.73904
1315413089118,3.69362
1315413149118,3.74816
1315413209118,3.72615
1315413269118,3.73010
1315413329118,3.75975
1315413389118,3.76194
1315413449118,3.74074
1315413509118,3.74030
1315413569118,3.71697
1315413629118,3.74299
1315413689118,3.74019
1315413749118,3.77183
1315413809118,3.75045
1315413869118,3.73168
1315413929118,3.73804
1315413989118,3.74866
1315414049118,3.74255
1315414109118,3.93499
1315414169118,3.74184
1315414229118,3.74293
1315414289118,3.72658
1315414349118,3.76145
1315414409118,3.72330
1315414469118,3.71928
1315414529118,3.73600
1315414589118,3.73425
1315414649118,3.75432
1315414709118,3.73136
1315414769118,3.73838
1315414829130,3.72475
1315414889130,3.73821
1315414949130,3.74656
1315415009130,3.73507
1315415069130,3.75375
1315415129130,3.76770
1315415189130,3.74788
1315415249130,3.75040
1315415309130,3.72137
1315415369130,3.75378
1315415429130,3.77859
1315415489130,3.77531
1315415549130,3.73073
1315415609130,3.72638
1315415669130,3.74450
1315415729130,3.74105
1315415789130,3.74810
1315415849130,3.74265
1315415909130,3.73294
1315415969130,3.73743
1315416029130,3.74109
1315416089130,3.77199
1315416149130,3.72898
1315416209130,3.76160
1315416269130,3.71029
1315416329130,3.71773
1315416389130,3.72392
1315416449130,3.74845
1315416509130,3.73632
1315416569130,3.74971
1315416629130,3.73854
1315416689130,3.74212
1315416749130,3.72184
1315416809130,3.73316
1315416869130,3.72564
1315416929130,3.73985
1315416989130,3.73353
1315417049130,3.75183
1315417109130,3.73154
1315417169130,3.72004
1315417229130,3.75141
1315417289130,3.73714
1315417349130,3.70480
1315417409130,3.74346
1315417469130,3.72736
1315417529130,3.74959
1315417589130,3.72527
1315417649130,3.70361
1315417709130,3.71791
1315417769130,3.75615
1315417829130,3.73050
1315417889130,3.76287
1315417949130,3.72030
1315418009130,3.71538
1315418069130,3.70536
1315418129130,3.73625
1315418189130,3.74686
1315418249130,3.74125
1315418309130,3.69831
1315418369130,3.73158
1315418429141,3.72921
1315418489141,3.73332
1315418549141,3.71912
1315418609141,3.76101
1315418669141,3.72325
1315418729141,3.71832
1315418789141,3.72687
1315418849141,3.73752
1315418909141,3.73379
1315418969141,3.70519
1315419029141,3.70836
1315419089141,3.72226
1315419149141,3.69870
1315419209141,3.72751
1315419269141,3.73180
1315419329141,3.71086
1315419389141,3.67063
1315419449141,3.72230